| time (UTC) | temp F | wind direction | speed MPH | gust MPH | rain 1hr in | rain 24hr in | rain mn in | humidity % | barometer mb |
| 20260906204247 | 103 | 133 | 0.0 | 1.0 | 0.00 | 0.00 | 0.00 | 28 | 1012.9 |
| 20260906203746 | 102 | 89 | 0.0 | 1.0 | 0.00 | 0.00 | 0.00 | 28 | 1013.1 |
| 20260906203242 | 105 | 143 | 1.0 | 1.0 | 0.00 | 0.00 | 0.00 | 28 | 1012.9 |
| 20260906202738 | 105 | 281 | 1.0 | 2.0 | 0.00 | 0.00 | 0.00 | 27 | 1012.9 |
| 20260906202238 | 104 | 145 | 0.0 | 0.0 | 0.00 | 0.00 | 0.00 | 30 | 1013.1 |
| 20260906201732 | 104 | 186 | 3.0 | 5.0 | 0.00 | 0.00 | 0.00 | 28 | 1013.4 |
| 20260906201227 | 103 | 191 | 4.0 | 5.0 | 0.00 | 0.00 | 0.00 | 27 | 1013.1 |
| 20260906200723 | 104 | 147 | 1.0 | 2.0 | 0.00 | 0.00 | 0.00 | 29 | 1013.2 |
| 20260906200218 | 104 | 124 | 1.0 | 2.0 | 0.00 | 0.00 | 0.00 | 29 | 1013.4 |
| 20260906195714 | 103 | 71 | 2.0 | 2.0 | 0.00 | 0.00 | 0.00 | 29 | 1013.5 |
| 20260906195210 | 102 | 167 | 0.0 | 1.0 | 0.00 | 0.00 | 0.00 | 30 | 1013.7 |
| 20260906194705 | 102 | 212 | 4.0 | 5.0 | 0.00 | 0.00 | 0.00 | 29 | 1013.9 |
| 20260906194201 | 101 | 186 | 1.0 | 2.0 | 0.00 | 0.00 | 0.00 | 33 | 1013.9 |
| 20260906193655 | 101 | 118 | 0.0 | 1.0 | 0.00 | 0.00 | 0.00 | 33 | 1013.6 |
| 20260906193150 | 99 | 142 | 0.0 | 1.0 | 0.00 | 0.00 | 0.00 | 32 | 1013.9 |
| 20260906192646 | 100 | 138 | 1.0 | 2.0 | 0.00 | 0.00 | 0.00 | 31 | 1013.8 |
| 20260906192145 | 101 | 137 | 1.0 | 1.0 | 0.00 | 0.00 | 0.00 | 31 | 1014.2 |
| 20260906191640 | 101 | 69 | 1.0 | 3.0 | 0.00 | 0.00 | 0.00 | 31 | 1014.0 |
| 20260906191139 | 100 | 169 | 1.0 | 1.0 | 0.00 | 0.00 | 0.00 | 33 | 1014.0 |
| 20260906190634 | 100 | 135 | 0.0 | 0.0 | 0.00 | 0.00 | 0.00 | 34 | 1014.2 |
| 20260906190129 | 98 | 131 | 1.0 | 2.0 | 0.00 | 0.00 | 0.00 | 34 | 1014.3 |
| 20260906185628 | 98 | 124 | 3.0 | 5.0 | 0.00 | 0.00 | 0.00 | 34 | 1014.3 |
| 20260906185127 | 99 | 135 | 2.0 | 6.0 | 0.00 | 0.00 | 0.00 | 33 | 1014.6 |
| 20260906184622 | 101 | 87 | 2.0 | 2.0 | 0.00 | 0.00 | 0.00 | 33 | 1014.2 |
| 20260906184118 | 100 | 164 | 2.0 | 3.0 | 0.00 | 0.00 | 0.00 | 32 | 1014.3 |
| 20260906183614 | 100 | 176 | 2.0 | 3.0 | 0.00 | 0.00 | 0.00 | 33 | 1014.6 |
| 20260906183109 | 99 | 112 | 1.0 | 3.0 | 0.00 | 0.00 | 0.00 | 34 | 1014.9 |
| 20260906182604 | 101 | 130 | 0.0 | 1.0 | 0.00 | 0.00 | 0.00 | 32 | 1014.8 |
| 20260906182100 | 101 | 119 | 0.0 | 1.0 | 0.00 | 0.00 | 0.00 | 32 | 1015.0 |
| 20260906181555 | 100 | 108 | 1.0 | 2.0 | 0.00 | 0.00 | 0.00 | 33 | 1015.0 |
| 20260906181051 | 100 | 74 | 4.0 | 6.0 | 0.00 | 0.00 | 0.00 | 33 | 1015.0 |
| 20260906180551 | 100 | 126 | 1.0 | 2.0 | 0.00 | 0.00 | 0.00 | 36 | 1014.9 |
| 20260906180050 | 101 | 131 | 2.0 | 5.0 | 0.00 | 0.00 | 0.00 | 34 | 1015.2 |
| 20260906175549 | 101 | 144 | 2.0 | 5.0 | 0.00 | 0.00 | 0.00 | 35 | 1015.2 |
| 20260906175044 | 99 | 112 | 2.0 | 3.0 | 0.00 | 0.00 | 0.00 | 35 | 1015.3 |
| 20260906174542 | 100 | 141 | 0.0 | 0.0 | 0.00 | 0.00 | 0.00 | 36 | 1015.5 |
| 20260906174037 | 100 | 142 | 0.0 | 0.0 | 0.00 | 0.00 | 0.00 | 35 | 1015.5 |
| 20260906173532 | 100 | 101 | 2.0 | 3.0 | 0.00 | 0.00 | 0.00 | 35 | 1015.5 |
| 20260906173028 | 99 | 129 | 0.0 | 0.0 | 0.00 | 0.00 | 0.00 | 36 | 1015.8 |
| 20260906172522 | 98 | 153 | 2.0 | 3.0 | 0.00 | 0.00 | 0.00 | 37 | 1015.5 |
| 20260906172018 | 98 | 139 | 1.0 | 1.0 | 0.00 | 0.00 | 0.00 | 36 | 1015.9 |
| 20260906171513 | 99 | 147 | 1.0 | 2.0 | 0.00 | 0.00 | 0.00 | 35 | 1015.8 |
| 20260906171008 | 100 | 159 | 0.0 | 0.0 | 0.00 | 0.00 | 0.00 | 35 | 1016.0 |
| 20260906170504 | 101 | 157 | 0.0 | 1.0 | 0.00 | 0.00 | 0.00 | 34 | 1015.8 |
| 20260906170002 | 100 | 141 | 1.0 | 2.0 | 0.00 | 0.00 | 0.00 | 35 | 1016.1 |
| 20260906165500 | 99 | 89 | 0.0 | 0.0 | 0.00 | 0.00 | 0.00 | 35 | 1016.2 |
| 20260906164955 | 99 | 140 | 2.0 | 3.0 | 0.00 | 0.00 | 0.00 | 36 | 1016.3 |
| 20260906164454 | 98 | 155 | 1.0 | 2.0 | 0.00 | 0.00 | 0.00 | 37 | 1016.3 |
| 20260906163950 | 100 | 164 | 2.0 | 5.0 | 0.00 | 0.00 | 0.00 | 36 | 1016.5 |
| 20260906163446 | 100 | 144 | 2.0 | 2.0 | 0.00 | 0.00 | 0.00 | 35 | 1016.3 |
| 20260906162944 | 99 | 89 | 3.0 | 3.0 | 0.00 | 0.00 | 0.00 | 36 | 1016.4 |
| 20260906162443 | 98 | 110 | 1.0 | 2.0 | 0.00 | 0.00 | 0.00 | 38 | 1016.2 |
| 20260906161938 | 98 | 133 | 0.0 | 0.0 | 0.00 | 0.00 | 0.00 | 38 | 1016.5 |
| 20260906161438 | 99 | 155 | 1.0 | 2.0 | 0.00 | 0.00 | 0.00 | 36 | 1016.1 |
| 20260906160937 | 99 | 147 | 0.0 | 0.0 | 0.00 | 0.00 | 0.00 | 38 | 1016.3 |
| 20260906160430 | 98 | 171 | 0.0 | 1.0 | 0.00 | 0.00 | 0.00 | 37 | 1016.3 |
| 20260906155929 | 97 | 151 | 0.0 | 1.0 | 0.00 | 0.00 | 0.00 | 39 | 1016.3 |
| 20260906155428 | 96 | 148 | 0.0 | 0.0 | 0.00 | 0.00 | 0.00 | 39 | 1016.3 |
| 20260906154924 | 95 | 143 | 0.0 | 0.0 | 0.00 | 0.00 | 0.00 | 40 | 1016.1 |
| 20260906154419 | 94 | 155 | 0.0 | 0.0 | 0.00 | 0.00 | 0.00 | 41 | 1016.3 |
| 20260906153917 | 94 | 202 | 1.0 | 2.0 | 0.00 | 0.00 | 0.00 | 41 | 1016.2 |
| 20260906153416 | 93 | 153 | 0.0 | 1.0 | 0.00 | 0.00 | 0.00 | 42 | 1015.9 |
| 20260906152912 | 93 | 181 | 4.0 | 6.0 | 0.00 | 0.00 | 0.00 | 42 | 1016.0 |
| 20260906152407 | 93 | 172 | 2.0 | 5.0 | 0.00 | 0.00 | 0.00 | 42 | 1016.0 |
| 20260906151906 | 93 | 155 | 0.0 | 0.0 | 0.00 | 0.00 | 0.00 | 43 | 1015.9 |
| 20260906151401 | 93 | 165 | 3.0 | 5.0 | 0.00 | 0.00 | 0.00 | 43 | 1016.1 |
| 20260906150857 | 94 | 211 | 2.0 | 3.0 | 0.00 | 0.00 | 0.00 | 42 | 1016.0 |
| 20260906150352 | 93 | 142 | 0.0 | 0.0 | 0.00 | 0.00 | 0.00 | 44 | 1016.2 |
| 20260906145852 | 92 | 153 | 0.0 | 0.0 | 0.00 | 0.00 | 0.00 | 44 | 1015.7 |
| 20260906145350 | 93 | 178 | 0.0 | 1.0 | 0.00 | 0.00 | 0.00 | 44 | 1015.8 |
| 20260906144845 | 92 | 155 | 1.0 | 1.0 | 0.00 | 0.00 | 0.00 | 45 | 1016.0 |
| 20260906144340 | 92 | 159 | 1.0 | 1.0 | 0.00 | 0.00 | 0.00 | 44 | 1016.1 |
| 20260906143840 | 91 | 171 | 1.0 | 2.0 | 0.00 | 0.00 | 0.00 | 45 | 1015.9 |
| 20260906143337 | 90 | 153 | 0.0 | 1.0 | 0.00 | 0.00 | 0.00 | 47 | 1015.9 |
| 20260906142832 | 90 | 165 | 0.0 | 1.0 | 0.00 | 0.00 | 0.00 | 47 | 1015.7 |
| 20260906142326 | 89 | 165 | 1.0 | 2.0 | 0.00 | 0.00 | 0.00 | 47 | 1016.0 |
| 20260906141821 | 89 | 169 | 1.0 | 1.0 | 0.00 | 0.00 | 0.00 | 48 | 1016.0 |
| 20260906141315 | 88 | 165 | 0.0 | 1.0 | 0.00 | 0.00 | 0.00 | 48 | 1015.8 |
| 20260906140814 | 88 | 157 | 1.0 | 1.0 | 0.00 | 0.00 | 0.00 | 48 | 1015.9 |
| 20260906140309 | 88 | 167 | 0.0 | 1.0 | 0.00 | 0.00 | 0.00 | 49 | 1016.0 |
| 20260906135807 | 87 | 175 | 1.0 | 1.0 | 0.00 | 0.00 | 0.00 | 49 | 1015.8 |
| 20260906135305 | 87 | 169 | 1.0 | 2.0 | 0.00 | 0.00 | 0.00 | 50 | 1015.8 |
| 20260906134757 | 86 | 157 | 0.0 | 0.0 | 0.00 | 0.00 | 0.00 | 51 | 1015.6 |
| 20260906134252 | 86 | 188 | 1.0 | 2.0 | 0.00 | 0.00 | 0.00 | 52 | 1015.8 |
| 20260906133748 | 85 | 172 | 1.0 | 2.0 | 0.00 | 0.00 | 0.00 | 53 | 1015.7 |
| 20260906133243 | 84 | 163 | 1.0 | 1.0 | 0.00 | 0.00 | 0.00 | 53 | 1015.7 |
| 20260906132739 | 84 | 205 | 0.0 | 2.0 | 0.00 | 0.00 | 0.00 | 53 | 1015.8 |
| 20260906132234 | 84 | 162 | 0.0 | 0.0 | 0.00 | 0.00 | 0.00 | 53 | 1015.8 |
| 20260906131730 | 84 | 160 | 0.0 | 0.0 | 0.00 | 0.00 | 0.00 | 55 | 1015.5 |
| 20260906131224 | 83 | 152 | 0.0 | 0.0 | 0.00 | 0.00 | 0.00 | 55 | 1015.6 |
| 20260906130720 | 82 | 149 | 0.0 | 0.0 | 0.00 | 0.00 | 0.00 | 57 | 1015.5 |
| 20260906130215 | 81 | 161 | 0.0 | 0.0 | 0.00 | 0.00 | 0.00 | 58 | 1015.3 |
| 20260906125713 | 81 | 161 | 0.0 | 0.0 | 0.00 | 0.00 | 0.00 | 58 | 1015.4 |
| 20260906125212 | 80 | 162 | 0.0 | 0.0 | 0.00 | 0.00 | 0.00 | 59 | 1015.3 |
| 20260906124707 | 80 | 162 | 0.0 | 0.0 | 0.00 | 0.00 | 0.00 | 59 | 1015.2 |
| 20260906124203 | 80 | 156 | 0.0 | 0.0 | 0.00 | 0.00 | 0.00 | 59 | 1015.2 |
| 20260906123701 | 80 | 164 | 0.0 | 0.0 | 0.00 | 0.00 | 0.00 | 59 | 1015.0 |
| 20260906123156 | 80 | 160 | 0.0 | 0.0 | 0.00 | 0.00 | 0.00 | 59 | 1015.1 |
| 20260906122655 | 80 | 162 | 0.0 | 0.0 | 0.00 | 0.00 | 0.00 | 59 | 1015.1 |
| 20260906122151 | 80 | 161 | 0.0 | 0.0 | 0.00 | 0.00 | 0.00 | 59 | 1015.1 |
| 20260906121648 | 80 | 166 | 0.0 | 0.0 | 0.00 | 0.00 | 0.00 | 59 | 1014.8 |
| 20260906121144 | 79 | 158 | 0.0 | 0.0 | 0.00 | 0.00 | 0.00 | 59 | 1014.9 |
| 20260906120639 | 79 | 158 | 0.0 | 0.0 | 0.00 | 0.00 | 0.00 | 59 | 1014.9 |
| 20260906120136 | 79 | 158 | 0.0 | 0.0 | 0.00 | 0.00 | 0.00 | 60 | 1014.8 |
| 20260906115631 | 79 | 158 | 0.0 | 0.0 | 0.00 | 0.00 | 0.00 | 59 | 1015.0 |
| 20260906115127 | 79 | 159 | 0.0 | 0.0 | 0.00 | 0.00 | 0.00 | 58 | 1014.8 |
| 20260906114625 | 79 | 159 | 0.0 | 0.0 | 0.00 | 0.00 | 0.00 | 58 | 1014.7 |
| 20260906114121 | 80 | 158 | 0.0 | 0.0 | 0.00 | 0.00 | 0.00 | 58 | 1014.8 |
| 20260906113620 | 80 | 158 | 0.0 | 0.0 | 0.00 | 0.00 | 0.00 | 57 | 1014.5 |
| 20260906113120 | 80 | 160 | 0.0 | 0.0 | 0.00 | 0.00 | 0.00 | 57 | 1014.6 |
| 20260906112620 | 80 | 159 | 0.0 | 0.0 | 0.00 | 0.00 | 0.00 | 57 | 1014.6 |
| 20260906112117 | 80 | 161 | 0.0 | 0.0 | 0.00 | 0.00 | 0.00 | 57 | 1014.3 |
| 20260906111616 | 80 | 157 | 0.0 | 0.0 | 0.00 | 0.00 | 0.00 | 57 | 1014.0 |
| 20260906111112 | 80 | 163 | 0.0 | 0.0 | 0.00 | 0.00 | 0.00 | 57 | 1014.4 |
| 20260906110612 | 80 | 152 | 0.0 | 0.0 | 0.00 | 0.00 | 0.00 | 57 | 1014.0 |
| 20260906110106 | 80 | 156 | 0.0 | 0.0 | 0.00 | 0.00 | 0.00 | 57 | 1014.2 |
| 20260906105600 | 80 | 156 | 0.0 | 0.0 | 0.00 | 0.00 | 0.00 | 57 | 1014.2 |
| 20260906105057 | 80 | 156 | 0.0 | 0.0 | 0.00 | 0.00 | 0.00 | 57 | 1014.4 |
| 20260906104555 | 80 | 158 | 0.0 | 0.0 | 0.00 | 0.00 | 0.00 | 57 | 1014.4 |
| 20260906104050 | 80 | 158 | 0.0 | 0.0 | 0.00 | 0.00 | 0.00 | 58 | 1014.0 |
| 20260906103548 | 80 | 171 | 1.0 | 1.0 | 0.00 | 0.00 | 0.00 | 59 | 1013.9 |
| 20260906103044 | 80 | 158 | 0.0 | 0.0 | 0.00 | 0.00 | 0.00 | 59 | 1013.9 |
| 20260906102543 | 80 | 158 | 0.0 | 0.0 | 0.00 | 0.00 | 0.00 | 59 | 1014.2 |
| 20260906102038 | 80 | 156 | 0.0 | 0.0 | 0.00 | 0.00 | 0.00 | 59 | 1014.0 |
| 20260906101533 | 79 | 154 | 0.0 | 0.0 | 0.00 | 0.00 | 0.00 | 59 | 1014.0 |
| 20260906101028 | 78 | 153 | 0.0 | 0.0 | 0.00 | 0.00 | 0.00 | 59 | 1014.0 |
| 20260906100524 | 78 | 153 | 0.0 | 0.0 | 0.00 | 0.00 | 0.00 | 59 | 1014.0 |
| 20260906100024 | 79 | 159 | 0.0 | 0.0 | 0.00 | 0.00 | 0.00 | 58 | 1013.9 |
| 20260906095518 | 79 | 159 | 0.0 | 0.0 | 0.00 | 0.00 | 0.00 | 58 | 1013.9 |
| 20260906095014 | 79 | 159 | 0.0 | 0.0 | 0.00 | 0.00 | 0.00 | 58 | 1013.7 |
| 20260906094512 | 80 | 159 | 0.0 | 0.0 | 0.00 | 0.00 | 0.00 | 56 | 1013.7 |
| 20260906094009 | 80 | 159 | 0.0 | 0.0 | 0.00 | 0.00 | 0.00 | 55 | 1013.9 |
| 20260906093505 | 81 | 161 | 0.0 | 0.0 | 0.00 | 0.00 | 0.00 | 55 | 1013.7 |
| 20260906093000 | 81 | 162 | 0.0 | 0.0 | 0.00 | 0.00 | 0.00 | 54 | 1013.9 |
| 20260906092459 | 81 | 161 | 0.0 | 0.0 | 0.00 | 0.00 | 0.00 | 54 | 1014.2 |
| 20260906091954 | 81 | 160 | 0.0 | 0.0 | 0.00 | 0.00 | 0.00 | 53 | 1014.2 |
| 20260906091450 | 82 | 160 | 0.0 | 0.0 | 0.00 | 0.00 | 0.00 | 52 | 1014.0 |
| 20260906090947 | 82 | 161 | 0.0 | 0.0 | 0.00 | 0.00 | 0.00 | 52 | 1013.7 |
| 20260906090442 | 83 | 161 | 0.0 | 0.0 | 0.00 | 0.00 | 0.00 | 51 | 1013.8 |
| 20260906085941 | 83 | 159 | 0.0 | 0.0 | 0.00 | 0.00 | 0.00 | 51 | 1013.9 |
| 20260906085441 | 83 | 162 | 0.0 | 0.0 | 0.00 | 0.00 | 0.00 | 50 | 1013.8 |
| 20260906084940 | 83 | 165 | 0.0 | 0.0 | 0.00 | 0.00 | 0.00 | 50 | 1013.9 |
| 20260906084435 | 83 | 166 | 0.0 | 0.0 | 0.00 | 0.00 | 0.00 | 50 | 1013.7 |
| 20260906083934 | 83 | 160 | 0.0 | 1.0 | 0.00 | 0.00 | 0.00 | 50 | 1013.6 |
| 20260906083430 | 83 | 168 | 0.0 | 0.0 | 0.00 | 0.00 | 0.00 | 50 | 1013.8 |
| 20260906082929 | 84 | 168 | 0.0 | 0.0 | 0.00 | 0.00 | 0.00 | 50 | 1013.9 |
| 20260906082424 | 84 | 165 | 0.0 | 0.0 | 0.00 | 0.00 | 0.00 | 50 | 1013.9 |
| 20260906081920 | 84 | 161 | 0.0 | 0.0 | 0.00 | 0.00 | 0.00 | 50 | 1013.7 |
| 20260906081415 | 84 | 171 | 0.0 | 1.0 | 0.00 | 0.00 | 0.00 | 49 | 1013.8 |
| 20260906080912 | 84 | 165 | 0.0 | 0.0 | 0.00 | 0.00 | 0.00 | 50 | 1013.7 |
| 20260906080408 | 84 | 161 | 0.0 | 0.0 | 0.00 | 0.00 | 0.00 | 49 | 1013.5 |
| 20260906075907 | 84 | 169 | 0.0 | 0.0 | 0.00 | 0.00 | 0.00 | 49 | 1013.8 |
| 20260906075402 | 84 | 163 | 0.0 | 0.0 | 0.00 | 0.00 | 0.00 | 49 | 1013.7 |
| 20260906074857 | 84 | 165 | 0.0 | 0.0 | 0.00 | 0.00 | 0.00 | 49 | 1013.8 |
| 20260906074357 | 84 | 169 | 0.0 | 0.0 | 0.00 | 0.00 | 0.00 | 49 | 1013.7 |
| 20260906073855 | 84 | 164 | 0.0 | 0.0 | 0.00 | 0.00 | 0.00 | 49 | 1013.9 |
| 20260906073351 | 84 | 166 | 0.0 | 0.0 | 0.00 | 0.00 | 0.00 | 49 | 1013.8 |
| 20260906072847 | 84 | 157 | 0.0 | 0.0 | 0.00 | 0.00 | 0.00 | 49 | 1013.7 |
| 20260906072343 | 84 | 160 | 0.0 | 0.0 | 0.00 | 0.00 | 0.00 | 49 | 1013.7 |
| 20260906071838 | 85 | 161 | 0.0 | 0.0 | 0.00 | 0.00 | 0.00 | 48 | 1013.7 |
| 20260906071333 | 85 | 151 | 0.0 | 0.0 | 0.00 | 0.00 | 0.00 | 48 | 1013.8 |
| 20260906070830 | 85 | 166 | 1.0 | 1.0 | 0.00 | 0.00 | 0.00 | 48 | 1013.7 |
| 20260906070325 | 85 | 178 | 1.0 | 1.0 | 0.00 | 0.00 | 0.00 | 47 | 1013.8 |
| 20260906065820 | 85 | 179 | 0.0 | 1.0 | 0.00 | 0.00 | 0.00 | 47 | 1013.8 |
| 20260906065315 | 85 | 155 | 0.0 | 1.0 | 0.00 | 0.00 | 0.00 | 47 | 1013.8 |
| 20260906064811 | 85 | 179 | 1.0 | 2.0 | 0.00 | 0.00 | 0.00 | 47 | 1013.7 |
| 20260906064307 | 85 | 159 | 0.0 | 0.0 | 0.00 | 0.00 | 0.00 | 47 | 1013.7 |
| 20260906063801 | 86 | 168 | 0.0 | 1.0 | 0.00 | 0.00 | 0.00 | 47 | 1013.9 |
| 20260906063256 | 86 | 179 | 1.0 | 1.0 | 0.00 | 0.00 | 0.00 | 46 | 1013.8 |
| 20260906062752 | 86 | 158 | 0.0 | 0.0 | 0.00 | 0.00 | 0.00 | 46 | 1013.9 |
| 20260906062251 | 86 | 187 | 2.0 | 3.0 | 0.00 | 0.00 | 0.00 | 46 | 1014.0 |
| 20260906061746 | 86 | 165 | 0.0 | 1.0 | 0.00 | 0.00 | 0.00 | 46 | 1013.8 |
| 20260906061243 | 86 | 164 | 0.0 | 0.0 | 0.00 | 0.00 | 0.00 | 46 | 1013.7 |
| 20260906060738 | 87 | 160 | 0.0 | 1.0 | 0.00 | 0.00 | 0.00 | 45 | 1014.0 |
| 20260906060236 | 87 | 171 | 0.0 | 1.0 | 0.00 | 0.00 | 0.00 | 45 | 1014.0 |
| 20260906055730 | 87 | 168 | 1.0 | 1.0 | 0.00 | 0.00 | 0.00 | 45 | 1013.7 |
| 20260906055220 | 87 | 177 | 2.0 | 2.0 | 0.00 | 0.00 | 0.00 | 45 | 1013.6 |
| 20260906054715 | 87 | 166 | 0.0 | 1.0 | 0.00 | 0.00 | 0.00 | 45 | 1013.8 |
| 20260906054210 | 87 | 161 | 0.0 | 0.0 | 0.00 | 0.00 | 0.00 | 45 | 1013.7 |
| 20260906053707 | 87 | 170 | 1.0 | 2.0 | 0.00 | 0.00 | 0.00 | 44 | 1013.6 |
| 20260906053202 | 87 | 185 | 2.0 | 2.0 | 0.00 | 0.00 | 0.00 | 44 | 1013.7 |
| 20260906052657 | 87 | 169 | 0.0 | 1.0 | 0.00 | 0.00 | 0.00 | 44 | 1013.7 |
| 20260906052154 | 87 | 184 | 2.0 | 2.0 | 0.00 | 0.00 | 0.00 | 44 | 1013.6 |
| 20260906051650 | 87 | 174 | 1.0 | 2.0 | 0.00 | 0.00 | 0.00 | 44 | 1013.5 |
| 20260906051149 | 87 | 175 | 1.0 | 1.0 | 0.00 | 0.00 | 0.00 | 44 | 1013.6 |
| 20260906050645 | 87 | 161 | 0.0 | 1.0 | 0.00 | 0.00 | 0.00 | 44 | 1013.5 |
| 20260906050140 | 88 | 157 | 0.0 | 0.0 | 0.00 | 0.00 | 0.00 | 44 | 1013.5 |
| 20260906045638 | 88 | 150 | 0.0 | 0.0 | 0.00 | 0.00 | 0.00 | 44 | 1013.5 |
| 20260906045133 | 88 | 137 | 0.0 | 1.0 | 0.00 | 0.00 | 0.00 | 43 | 1013.4 |
| 20260906044630 | 88 | 190 | 0.0 | 2.0 | 0.00 | 0.00 | 0.00 | 43 | 1013.5 |
| 20260906044124 | 88 | 160 | 0.0 | 0.0 | 0.00 | 0.00 | 0.00 | 43 | 1013.5 |
| 20260906043621 | 88 | 150 | 0.0 | 1.0 | 0.00 | 0.00 | 0.00 | 44 | 1013.5 |
| 20260906043116 | 88 | 162 | 0.0 | 1.0 | 0.00 | 0.00 | 0.00 | 44 | 1013.6 |
| 20260906042615 | 88 | 162 | 0.0 | 0.0 | 0.00 | 0.00 | 0.00 | 44 | 1013.7 |
| 20260906042110 | 88 | 166 | 0.0 | 0.0 | 0.00 | 0.00 | 0.00 | 44 | 1013.7 |
| 20260906041606 | 88 | 172 | 0.0 | 1.0 | 0.00 | 0.00 | 0.00 | 43 | 1013.6 |
| 20260906041100 | 89 | 157 | 0.0 | 0.0 | 0.00 | 0.00 | 0.00 | 43 | 1013.8 |
| 20260906040556 | 89 | 161 | 0.0 | 0.0 | 0.00 | 0.00 | 0.00 | 42 | 1013.7 |
| 20260906040051 | 89 | 169 | 0.0 | 1.0 | 0.00 | 0.00 | 0.00 | 42 | 1013.8 |
| 20260906035546 | 89 | 159 | 0.0 | 0.0 | 0.00 | 0.00 | 0.00 | 42 | 1013.6 |
| 20260906035042 | 89 | 163 | 0.0 | 0.0 | 0.00 | 0.00 | 0.00 | 41 | 1013.6 |
| 20260906034542 | 90 | 190 | 1.0 | 2.0 | 0.00 | 0.00 | 0.00 | 41 | 1013.7 |
| 20260906034037 | 90 | 156 | 0.0 | 0.0 | 0.00 | 0.00 | 0.00 | 40 | 1013.4 |
| 20260906033532 | 90 | 160 | 0.0 | 1.0 | 0.00 | 0.00 | 0.00 | 40 | 1013.6 |
| 20260906033028 | 90 | 156 | 0.0 | 1.0 | 0.00 | 0.00 | 0.00 | 40 | 1013.7 |
| 20260906032525 | 91 | 168 | 1.0 | 1.0 | 0.00 | 0.00 | 0.00 | 40 | 1013.4 |
| 20260906032024 | 91 | 159 | 0.0 | 1.0 | 0.00 | 0.00 | 0.00 | 40 | 1013.7 |
| 20260906031520 | 91 | 155 | 0.0 | 1.0 | 0.00 | 0.00 | 0.00 | 39 | 1013.3 |
| 20260906031015 | 91 | 156 | 0.0 | 0.0 | 0.00 | 0.00 | 0.00 | 39 | 1013.4 |
| 20260906030514 | 91 | 155 | 0.0 | 1.0 | 0.00 | 0.00 | 0.00 | 39 | 1013.4 |
| 20260906030015 | 91 | 157 | 0.0 | 0.0 | 0.00 | 0.00 | 0.00 | 39 | 1013.4 |
| 20260906025514 | 91 | 160 | 0.0 | 0.0 | 0.00 | 0.00 | 0.00 | 39 | 1013.2 |
| 20260906025012 | 91 | 165 | 2.0 | 2.0 | 0.00 | 0.00 | 0.00 | 39 | 1013.5 |
| 20260906024508 | 92 | 153 | 0.0 | 0.0 | 0.00 | 0.00 | 0.00 | 38 | 1013.3 |
| 20260906024002 | 92 | 196 | 1.0 | 2.0 | 0.00 | 0.00 | 0.00 | 38 | 1013.3 |
| 20260906023458 | 92 | 167 | 0.0 | 1.0 | 0.00 | 0.00 | 0.00 | 38 | 1013.1 |
| 20260906022953 | 92 | 153 | 0.0 | 0.0 | 0.00 | 0.00 | 0.00 | 38 | 1013.2 |
| 20260906022448 | 92 | 154 | 0.0 | 0.0 | 0.00 | 0.00 | 0.00 | 38 | 1013.0 |
| 20260906021943 | 92 | 164 | 0.0 | 1.0 | 0.00 | 0.00 | 0.00 | 38 | 1012.9 |
| 20260906021438 | 93 | 159 | 0.0 | 1.0 | 0.00 | 0.00 | 0.00 | 38 | 1013.0 |
| 20260906020933 | 93 | 158 | 0.0 | 0.0 | 0.00 | 0.00 | 0.00 | 38 | 1012.9 |
| 20260906020427 | 93 | 148 | 0.0 | 1.0 | 0.00 | 0.00 | 0.00 | 37 | 1012.8 |
| 20260906015921 | 93 | 163 | 1.0 | 1.0 | 0.00 | 0.00 | 0.00 | 38 | 1012.9 |
| 20260906015421 | 93 | 168 | 1.0 | 2.0 | 0.00 | 0.00 | 0.00 | 37 | 1012.7 |
| 20260906014921 | 93 | 160 | 0.0 | 0.0 | 0.00 | 0.00 | 0.00 | 37 | 1012.9 |
| 20260906014420 | 93 | 158 | 0.0 | 0.0 | 0.00 | 0.00 | 0.00 | 37 | 1012.9 |
| 20260906013917 | 93 | 158 | 0.0 | 0.0 | 0.00 | 0.00 | 0.00 | 37 | 1012.5 |
| 20260906013412 | 94 | 164 | 0.0 | 0.0 | 0.00 | 0.00 | 0.00 | 36 | 1012.5 |
| 20260906012908 | 94 | 155 | 0.0 | 0.0 | 0.00 | 0.00 | 0.00 | 37 | 1012.5 |
| 20260906012402 | 94 | 163 | 0.0 | 0.0 | 0.00 | 0.00 | 0.00 | 36 | 1012.5 |
| 20260906011901 | 94 | 157 | 0.0 | 0.0 | 0.00 | 0.00 | 0.00 | 36 | 1012.4 |
| 20260906011356 | 95 | 159 | 0.0 | 1.0 | 0.00 | 0.00 | 0.00 | 36 | 1012.4 |
| 20260906010852 | 95 | 166 | 1.0 | 1.0 | 0.00 | 0.00 | 0.00 | 35 | 1012.4 |
| 20260906010348 | 95 | 156 | 0.0 | 0.0 | 0.00 | 0.00 | 0.00 | 35 | 1012.4 |
| 20260906005843 | 95 | 164 | 0.0 | 0.0 | 0.00 | 0.00 | 0.00 | 34 | 1012.2 |
| 20260906005343 | 96 | 192 | 1.0 | 2.0 | 0.00 | 0.00 | 0.00 | 34 | 1012.3 |
| 20260906004841 | 96 | 151 | 0.0 | 0.0 | 0.00 | 0.00 | 0.00 | 34 | 1012.2 |
| 20260906004336 | 96 | 127 | 0.0 | 0.0 | 0.00 | 0.00 | 0.00 | 33 | 1012.1 |
| 20260906003831 | 97 | 187 | 1.0 | 2.0 | 0.00 | 0.00 | 0.00 | 32 | 1012.3 |
| 20260906003326 | 97 | 158 | 0.0 | 0.0 | 0.00 | 0.00 | 0.00 | 32 | 1012.0 |
| 20260906002822 | 97 | 138 | 2.0 | 3.0 | 0.00 | 0.00 | 0.00 | 31 | 1012.1 |
| 20260906002321 | 98 | 150 | 0.0 | 1.0 | 0.00 | 0.00 | 0.00 | 31 | 1011.9 |
| 20260906001818 | 98 | 158 | 0.0 | 1.0 | 0.00 | 0.00 | 0.00 | 31 | 1012.0 |
| 20260906001312 | 98 | 149 | 2.0 | 2.0 | 0.00 | 0.00 | 0.00 | 31 | 1012.1 |
| 20260906000807 | 99 | 161 | 1.0 | 1.0 | 0.00 | 0.00 | 0.00 | 30 | 1012.2 |
| 20260906000303 | 99 | 141 | 0.0 | 0.0 | 0.00 | 0.00 | 0.00 | 30 | 1011.9 |
| 20260905235757 | 99 | 138 | 0.0 | 0.0 | 0.00 | 0.00 | 0.00 | 30 | 1011.9 |
| 20260905235256 | 99 | 136 | 0.0 | 0.0 | 0.00 | 0.00 | 0.00 | 30 | 1012.0 |
| 20260905234752 | 99 | 136 | 1.0 | 2.0 | 0.00 | 0.00 | 0.00 | 30 | 1011.8 |
| 20260905234247 | 100 | 153 | 2.0 | 5.0 | 0.00 | 0.00 | 0.00 | 30 | 1011.9 |
| 20260905233743 | 100 | 131 | 2.0 | 2.0 | 0.00 | 0.00 | 0.00 | 30 | 1011.9 |
| 20260905233242 | 100 | 118 | 0.0 | 2.0 | 0.00 | 0.00 | 0.00 | 30 | 1011.7 |
| 20260905232742 | 100 | 145 | 1.0 | 3.0 | 0.00 | 0.00 | 0.00 | 30 | 1012.0 |
| 20260905232238 | 100 | 98 | 0.0 | 1.0 | 0.00 | 0.00 | 0.00 | 30 | 1011.9 |
| 20260905231733 | 100 | 160 | 0.0 | 1.0 | 0.00 | 0.00 | 0.00 | 30 | 1011.9 |
| 20260905231228 | 100 | 122 | 0.0 | 0.0 | 0.00 | 0.00 | 0.00 | 30 | 1011.7 |
| 20260905230725 | 100 | 153 | 1.0 | 5.0 | 0.00 | 0.00 | 0.00 | 30 | 1011.8 |
| 20260905230222 | 100 | 129 | 1.0 | 2.0 | 0.00 | 0.00 | 0.00 | 30 | 1011.8 |
| 20260905225722 | 100 | 156 | 0.0 | 1.0 | 0.00 | 0.00 | 0.00 | 30 | 1011.8 |
| 20260905225217 | 100 | 167 | 1.0 | 2.0 | 0.00 | 0.00 | 0.00 | 30 | 1011.7 |
| 20260905224716 | 101 | 206 | 3.0 | 5.0 | 0.00 | 0.00 | 0.00 | 29 | 1011.7 |
| 20260905224212 | 101 | 152 | 0.0 | 0.0 | 0.00 | 0.00 | 0.00 | 30 | 1011.8 |
| 20260905223708 | 101 | 142 | 0.0 | 0.0 | 0.00 | 0.00 | 0.00 | 30 | 1011.6 |
| 20260905223205 | 100 | 160 | 0.0 | 0.0 | 0.00 | 0.00 | 0.00 | 30 | 1011.8 |
| 20260905222700 | 100 | 123 | 0.0 | 2.0 | 0.00 | 0.00 | 0.00 | 30 | 1011.7 |
| 20260905222159 | 100 | 145 | 2.0 | 5.0 | 0.00 | 0.00 | 0.00 | 29 | 1011.6 |
| 20260905221655 | 100 | 146 | 1.0 | 2.0 | 0.00 | 0.00 | 0.00 | 30 | 1011.9 |
| 20260905221152 | 101 | 157 | 0.0 | 1.0 | 0.00 | 0.00 | 0.00 | 30 | 1011.7 |
| 20260905220647 | 101 | 144 | 3.0 | 6.0 | 0.00 | 0.00 | 0.00 | 30 | 1011.8 |
| 20260905220143 | 101 | 160 | 3.0 | 3.0 | 0.00 | 0.00 | 0.00 | 29 | 1011.7 |
| 20260905215643 | 102 | 217 | 3.0 | 6.0 | 0.00 | 0.00 | 0.00 | 29 | 1011.9 |
| 20260905215138 | 101 | 188 | 4.0 | 6.0 | 0.00 | 0.00 | 0.00 | 29 | 1011.9 |
| 20260905214634 | 100 | 180 | 2.0 | 3.0 | 0.00 | 0.00 | 0.00 | 31 | 1012.1 |
| 20260905214129 | 101 | 179 | 3.0 | 5.0 | 0.00 | 0.00 | 0.00 | 30 | 1011.9 |
| 20260905213624 | 101 | 118 | 1.0 | 2.0 | 0.00 | 0.00 | 0.00 | 31 | 1012.1 |
| 20260905213119 | 101 | 146 | 1.0 | 3.0 | 0.00 | 0.00 | 0.00 | 31 | 1012.1 |
| 20260905212615 | 101 | 138 | 3.0 | 6.0 | 0.00 | 0.00 | 0.00 | 30 | 1012.5 |
| 20260905212114 | 102 | 154 | 1.0 | 2.0 | 0.00 | 0.00 | 0.00 | 30 | 1012.2 |
| 20260905211609 | 102 | 172 | 3.0 | 5.0 | 0.00 | 0.00 | 0.00 | 30 | 1012.4 |
| 20260905211105 | 101 | 158 | 0.0 | 1.0 | 0.00 | 0.00 | 0.00 | 30 | 1012.4 |
| 20260905210601 | 101 | 133 | 0.0 | 0.0 | 0.00 | 0.00 | 0.00 | 30 | 1012.6 |
| 20260905210055 | 100 | 126 | 1.0 | 3.0 | 0.00 | 0.00 | 0.00 | 30 | 1012.4 |
| 20260905205555 | 100 | 152 | 3.0 | 6.0 | 0.00 | 0.00 | 0.00 | 30 | 1012.7 |
| 20260905205055 | 101 | 114 | 1.0 | 2.0 | 0.00 | 0.00 | 0.00 | 30 | 1012.7 |